Location: D�rnast
(49.6426°N, 11.9755°E)
Time: 21:10:54
(UTC+00:00)

H-2A R/B - Pass Details

Date: 24 January 2021
Orbit: 577 x 655 km, 98.5° (Epoch: 01 March)

Event Time Altitude Azimuth Distance (km) Brightness Sun altitude
Rises 17:55:27 0° 5° (N) 2,971 5.4 -19.3°
Reaches altitude 10° 17:58:00 10° 352° (N) 2,046 4.7 -19.8°
Maximum altitude 18:01:34 24° 299° (WNW) 1,315 4.3 -20.3°
Drops below altitude 10° 18:05:03 10° 245° (WSW) 1,997 5.7 -20.9°
Sets 18:07:31 0° 232° (SW) 2,884 6.4 -21.3°
